Amsterdam, Netherlands

10:03 AM CET on February 10, 2016 (GMT +0100)
Schiphol

Weather History for EHAM - October, 2012

Change the Weather History Date:

Thursday, October 4, 2012

  Actual Average Record
Temperature  
Mean Temperature 54 °F -  
Max Temperature 59 °F 55 °F 71 °F (2010)
Min Temperature 50 °F 44 °F 41 °F (2008)
Degree Days  
Heating Degree Days 10    
Growing Degree Days 4 (Base 50)    
Moisture  
Dew Point 48 °F    
Average Humidity 83    
Maximum Humidity 96    
Minimum Humidity 54    
Precipitation  
Precipitation 0.16 in - - ()
Sea Level Pressure  
Sea Level Pressure 29.73 in    
Wind  
Wind Speed 12 mph ()    
Max Wind Speed 23 mph    
Max Gust Speed -    
Visibility 6.7 miles    
Events Rain    
Averages and records for this station are not official NWS values.
T = Trace of Precipitation, MM = Missing Value Source: Averaged Metar Reports

Daily Weather History Graph

Daily Weather History Graph

Search for Another Location

Airport or City:

Trip Planner

Search our weather history database for the weather conditions in past years. The results will help you decide how hot, cold, wet, or windy it might be!

Date:

Astronomy

Oct. 04, 2012 Rise Set
Actual Time 7:47 AM CEST 7:10 PM CEST
Civil Twilight 7:13 AM CEST 7:44 PM CEST
Nautical Twilight 6:34 AM CEST 8:23 PM CEST
Astronomical Twilight 5:53 AM CEST 9:03 PM CEST
Moon 8:59 PM CEST (10/4) 12:25 PM CEST (10/4)
Length of Visible Light 12h 30m
Length of Day
11h 22m
Waning Gibbous, 84% of the Moon is Illuminated
Oct 4
Waning Gibbous
Oct 8
Last Quarter
Oct 15
New
Oct 22
First Quarter
Oct 29
Full

Hourly Weather History & Observations

Time (CEST) Temp. Dew Point Humidity Pressure Visibility Wind Dir Wind Speed Gust Speed Precip Events Conditions
12:25 AM 51.8 °F 50.0 °F 94% 29.68 in 6.2 mi SSW 13.8 mph - N/A   Partly Cloudy
12:55 AM 51.8 °F 50.0 °F 94% 29.68 in 6.2 mi SSW 12.7 mph - N/A   Partly Cloudy
1:25 AM 51.8 °F 50.0 °F 94% 29.68 in 6.2 mi South 13.8 mph - N/A Rain Light Rain
1:55 AM 50.0 °F 48.2 °F 94% 29.68 in 6.2 mi SSW 11.5 mph - N/A   Partly Cloudy
2:00 AM 51 °F 49 °F 89% 29.69 in 14 mi South 11.2 mph - - Rain Rain
2:25 AM 51.8 °F 50.0 °F 94% 29.68 in 6.2 mi South 12.7 mph - N/A   Partly Cloudy
2:55 AM 51.8 °F 50.0 °F 94% 29.65 in 6.2 mi South 12.7 mph - N/A Rain Light Rain
3:25 AM 51.8 °F 50.0 °F 94% 29.65 in 6.2 mi South 12.7 mph - N/A Rain Light Rain
3:55 AM 51.8 °F 50.0 °F 94% 29.65 in 5.6 mi SSW 16.1 mph - N/A Rain Light Rain Showers
4:25 AM 51.8 °F 50.0 °F 94% 29.65 in 5.6 mi SSW 12.7 mph - N/A Rain Light Rain Showers
4:55 AM 51.8 °F 50.0 °F 94% 29.62 in 5.6 mi SSW 11.5 mph - N/A Rain Light Rain Showers
5:00 AM 52 °F 51 °F 94% 29.65 in 6 mi SSW 11.2 mph - - Rain Drizzle
5:25 AM 51.8 °F 50.0 °F 94% 29.62 in 5.6 mi SSW 10.4 mph - N/A Rain Light Rain Showers
5:55 AM 51.8 °F 50.0 °F 94% 29.62 in 6.2 mi SSW 8.1 mph - N/A   Scattered Clouds
6:25 AM 51.8 °F 50.0 °F 94% 29.62 in 6.2 mi SW 10.4 mph - N/A Rain Light Rain
6:55 AM 51.8 °F 50.0 °F 94% 29.62 in 6.2 mi SSW 10.4 mph - N/A Rain Light Rain
7:25 AM 51.8 °F 50.0 °F 94% 29.62 in 5.6 mi SSW 11.5 mph - N/A Rain Light Rain
7:55 AM 51.8 °F 50.0 °F 94% 29.62 in 5.0 mi SSW 12.7 mph - N/A Rain Light Rain
8:00 AM 51 °F 50 °F 96% 29.64 in 4 mi SSW 11.2 mph - - Rain Rain
8:25 AM 51.8 °F 50.0 °F 94% 29.62 in 6.2 mi South 11.5 mph - N/A Rain Light Rain
8:55 AM 51.8 °F 48.2 °F 88% 29.62 in 6.2 mi SSW 10.4 mph - N/A Rain Light Rain
9:25 AM 51.8 °F 48.2 °F 88% 29.62 in 6.2 mi SSW 11.5 mph - N/A   Scattered Clouds
9:55 AM 51.8 °F 48.2 °F 88% 29.62 in 6.2 mi SSW 11.5 mph - N/A Rain Light Rain Showers
10:25 AM 51.8 °F 48.2 °F 88% 29.65 in 6.2 mi SW 8.1 mph - N/A   Scattered Clouds
10:55 AM 51.8 °F 50.0 °F 94% 29.65 in 6.2 mi SW 9.2 mph - N/A   Partly Cloudy
11:00 AM 52 °F 49 °F 87% 29.67 in 19 mi SW 11.2 mph - - Rain Rain
11:25 AM 53.6 °F 50.0 °F 88% 29.65 in 6.2 mi SW 9.2 mph - N/A   Partly Cloudy
11:55 AM 55.4 °F 46.4 °F 72% 29.68 in 6.2 mi West 12.7 mph - N/A   Partly Cloudy
12:25 PM 59.0 °F 48.2 °F 67% 29.68 in 6.2 mi West 13.8 mph - N/A   Partly Cloudy
12:55 PM 55.4 °F 44.6 °F 67% 29.68 in 6.2 mi West 19.6 mph - N/A   Scattered Clouds
1:25 PM 55.4 °F 44.6 °F 67% 29.71 in 6.2 mi West 20.7 mph - N/A   Scattered Clouds
1:55 PM 55.4 °F 46.4 °F 72% 29.71 in 6.2 mi West 21.9 mph - N/A   Scattered Clouds
2:00 PM 58 °F 46 °F 54% 29.75 in 19 mi West 22.4 mph - -   Partly Cloudy
2:25 PM 57.2 °F 46.4 °F 67% 29.74 in 6.2 mi West 20.7 mph - N/A   Scattered Clouds
2:55 PM 57.2 °F 46.4 °F 67% 29.74 in 6.2 mi West 23.0 mph - N/A   Scattered Clouds
3:25 PM 57.2 °F 46.4 °F 67% 29.77 in 6.2 mi West 18.4 mph - N/A   Scattered Clouds
3:55 PM 57.2 °F 46.4 °F 67% 29.77 in 6.2 mi West 20.7 mph - N/A   Scattered Clouds
4:25 PM 57.2 °F 46.4 °F 67% 29.80 in 6.2 mi West 21.9 mph - N/A   Scattered Clouds
4:55 PM 55.4 °F 44.6 °F 67% 29.83 in 6.2 mi West 19.6 mph - N/A   Scattered Clouds
5:00 PM 57 °F 47 °F 59% 29.84 in 22 mi West 20.1 mph - -   Partly Cloudy
5:25 PM 57.2 °F 46.4 °F 67% 29.83 in 6.2 mi West 16.1 mph - N/A   Scattered Clouds
5:55 PM 55.4 °F 46.4 °F 72% 29.83 in 6.2 mi West 13.8 mph - N/A Rain Light Rain Showers
6:25 PM 55.4 °F 48.2 °F 77% 29.86 in 6.2 mi West 9.2 mph - N/A Rain Light Rain Showers
6:55 PM 53.6 °F 48.2 °F 82% 29.86 in 6.2 mi West 8.1 mph - N/A   Scattered Clouds
7:25 PM 55.4 °F 46.4 °F 72% 29.86 in 6.2 mi SW 10.4 mph - N/A Rain Light Rain Showers
7:55 PM 51.8 °F 48.2 °F 88% 29.86 in 5.0 mi WSW 11.5 mph - N/A Rain Light Rain Showers
8:00 PM 52 °F 48 °F 82% 29.88 in 5 mi WSW 8.9 mph - - Rain Rain Showers
8:25 PM 50.0 °F 48.2 °F 94% 29.86 in 6.2 mi SSW 6.9 mph - N/A   Scattered Clouds
8:55 PM 51.8 °F 48.2 °F 88% 29.86 in 6.2 mi South 6.9 mph - N/A   Scattered Clouds
9:25 PM 51.8 °F 46.4 °F 82% 29.86 in 6.2 mi South 10.4 mph - N/A   Partly Cloudy
9:55 PM 51.8 °F 46.4 °F 82% 29.86 in 6.2 mi South 10.4 mph - N/A   Partly Cloudy
10:25 PM 51.8 °F 48.2 °F 88% 29.86 in 6.2 mi South 10.4 mph - N/A   Partly Cloudy
10:55 PM 51.8 °F 48.2 °F 88% 29.89 in 6.2 mi South 11.5 mph - N/A   Partly Cloudy
11:00 PM 53 °F 48 °F 78% 29.88 in 22 mi SSW 13.4 mph - -   Mostly Cloudy
11:25 PM 53.6 °F 48.2 °F 82% 29.86 in 6.2 mi SSW 16.1 mph - N/A   Partly Cloudy
11:55 PM 53.6 °F 48.2 °F 82% 29.86 in 6.2 mi SSW 15.0 mph - N/A Rain Light Rain